Location: Unspecified
(0.0000°N, 0.0000°E)
Time: 02:33:41
(UTC+00:00)

COSMOS 2497 - Visible Passes

Search period start: 15 December 2025 00:00
Search period end: 25 December 2025 00:00
Orbit: 1478 x 1510 km, 82.5° (Epoch: 14 December)

Date Brightness Start Highest point End Pass type
(mag) Time Alt. Az. Time Alt. Az. Time Alt. Az.
15 Dec ? 21:51:45 24° SSW 21:51:45 24° SSW 21:54:42 10° S visible
16 Dec ? 21:02:10 27° SSE 21:02:10 27° SSE 21:05:37 10° SSE visible
17 Dec ? 20:12:33 19° SE 20:12:33 19° SE 20:15:07 10° SE visible
17 Dec ? 22:08:25 23° SW 22:08:25 23° SW 22:11:50 10° SSW visible
18 Dec ? 21:18:42 39° SSW 21:18:42 39° SSW 21:23:46 10° S visible
19 Dec ? 20:28:55 39° SE 20:28:55 39° SE 20:34:18 10° SSE visible
19 Dec ? 22:24:46 16° WSW 22:24:46 16° WSW 22:27:42 10° SW visible
20 Dec ? 19:39:02 22° ESE 19:39:02 22° ESE 19:43:17 10° SE visible
20 Dec ? 21:34:53 38° WSW 21:34:53 38° WSW 21:41:12 10° SSW visible
21 Dec ? 20:44:52 74° S 20:44:52 74° S 20:52:42 10° S visible
22 Dec ? 19:54:41 44° E 19:54:43 44° E 20:02:53 10° SSE visible
22 Dec ? 21:50:29 23° W 21:51:08 23° W 21:57:40 10° SW visible
23 Dec ? 19:04:16 18° ENE 19:05:33 19° E 19:11:11 10° SE visible
23 Dec ? 21:00:03 46° WNW 21:01:57 52° W 21:10:25 10° SSW visible
24 Dec ? 20:09:15 41° N 20:12:46 76° E 20:21:33 10° S visible
24 Dec ? 22:07:07 10° W 22:09:14 11° W 22:11:22 10° WSW visible
